"Date(UTC)","UnixTimeStamp","Value"
"12/10/2021","1639094400","0.0000"
"12/11/2021","1639180800","0.0000"
"12/12/2021","1639267200","0.0000"
"12/13/2021","1639353600","0.0000"
"12/14/2021","1639440000","0.0000"
"12/15/2021","1639526400","0.0000"
"12/16/2021","1639612800","0.0000"
"12/17/2021","1639699200","0.0000"
"12/18/2021","1639785600","0.0000"
"12/19/2021","1639872000","0.0000"
"12/20/2021","1639958400","0.0000"
"12/21/2021","1640044800","0.0000"
"12/22/2021","1640131200","0.0000"
"12/23/2021","1640217600","0.0000"
"12/24/2021","1640304000","0.0000"
"12/25/2021","1640390400","0.0000"
"12/26/2021","1640476800","0.0000"
"12/27/2021","1640563200","0.0002"
"12/28/2021","1640649600","0.0000"
"12/29/2021","1640736000","0.0003"
"12/30/2021","1640822400","0.0000"
"12/31/2021","1640908800","0.0000"
"1/1/2022","1640995200","0.0000"
"1/2/2022","1641081600","0.0001"
"1/3/2022","1641168000","0.0001"
"1/4/2022","1641254400","0.0000"
"1/5/2022","1641340800","0.0000"
"1/6/2022","1641427200","0.0000"
"1/7/2022","1641513600","0.0000"
"1/8/2022","1641600000","0.0000"
"1/9/2022","1641686400","0.0000"
"1/10/2022","1641772800","0.0000"
"1/11/2022","1641859200","0.0000"
"1/12/2022","1641945600","0.0000"
"1/13/2022","1642032000","0.0000"
"1/14/2022","1642118400","0.0000"
"1/15/2022","1642204800","0.0000"
"1/16/2022","1642291200","0.0000"
"1/17/2022","1642377600","0.0000"
"1/18/2022","1642464000","0.0000"
"1/19/2022","1642550400","0.0000"
"1/20/2022","1642636800","0.0000"
"1/21/2022","1642723200","0.0000"
"1/22/2022","1642809600","0.0000"
"1/23/2022","1642896000","0.0000"
"1/24/2022","1642982400","0.0000"
"1/25/2022","1643068800","0.0000"
"1/26/2022","1643155200","0.0000"
"1/27/2022","1643241600","0.0000"
"1/28/2022","1643328000","0.0000"
"1/29/2022","1643414400","0.0000"
"1/30/2022","1643500800","0.0000"
"1/31/2022","1643587200","0.0000"
"2/1/2022","1643673600","0.0000"
"2/2/2022","1643760000","0.0000"
"2/3/2022","1643846400","0.0004"
"2/4/2022","1643932800","0.0004"
"2/5/2022","1644019200","0.0024"
"2/6/2022","1644105600","0.0001"
"2/7/2022","1644192000","0.0000"
"2/8/2022","1644278400","0.0000"
"2/9/2022","1644364800","0.0000"
"2/10/2022","1644451200","0.0000"
"2/11/2022","1644537600","0.0000"
"2/12/2022","1644624000","0.0000"
"2/13/2022","1644710400","0.0000"
"2/14/2022","1644796800","0.0000"
"2/15/2022","1644883200","0.0000"
"2/16/2022","1644969600","0.0001"
"2/17/2022","1645056000","0.0004"
"2/18/2022","1645142400","0.0007"
"2/19/2022","1645228800","0.0004"
"2/20/2022","1645315200","0.0040"
"2/21/2022","1645401600","0.0034"
"2/22/2022","1645488000","0.0015"
"2/23/2022","1645574400","0.0044"
"2/24/2022","1645660800","0.0105"
"2/25/2022","1645747200","0.0126"
"2/26/2022","1645833600","0.0135"
"2/27/2022","1645920000","0.0244"
"2/28/2022","1646006400","0.0135"
"3/1/2022","1646092800","0.0142"
"3/2/2022","1646179200","0.0157"
"3/3/2022","1646265600","0.0054"
"3/4/2022","1646352000","0.0060"
"3/5/2022","1646438400","0.0068"
"3/6/2022","1646524800","0.0067"
"3/7/2022","1646611200","0.0434"
"3/8/2022","1646697600","0.0540"
"3/9/2022","1646784000","0.0063"
"3/10/2022","1646870400","0.0112"
"3/11/2022","1646956800","0.0044"
"3/12/2022","1647043200","0.0167"
"3/13/2022","1647129600","0.0756"
"3/14/2022","1647216000","0.0505"
"3/15/2022","1647302400","0.0453"
"3/16/2022","1647388800","0.0520"
"3/17/2022","1647475200","0.0373"
"3/18/2022","1647561600","0.0011"
"3/19/2022","1647648000","0.0020"
"3/20/2022","1647734400","0.0023"
"3/21/2022","1647820800","0.0021"
"3/22/2022","1647907200","0.0021"
"3/23/2022","1647993600","0.0018"
"3/24/2022","1648080000","0.0011"
"3/25/2022","1648166400","0.0010"
"3/26/2022","1648252800","0.0002"
"3/27/2022","1648339200","0.0006"
"3/28/2022","1648425600","0.0009"
"3/29/2022","1648512000","0.0009"
"3/30/2022","1648598400","0.0005"
"3/31/2022","1648684800","0.0005"
"4/1/2022","1648771200","0.0010"
"4/2/2022","1648857600","0.0002"
"4/3/2022","1648944000","0.0008"
"4/4/2022","1649030400","0.0011"
"4/5/2022","1649116800","0.0015"
"4/6/2022","1649203200","0.0902"
"4/7/2022","1649289600","0.1043"
"4/8/2022","1649376000","0.1087"
"4/9/2022","1649462400","0.0588"
"4/10/2022","1649548800","0.1795"
"4/11/2022","1649635200","0.0498"
"4/12/2022","1649721600","0.0446"
"4/13/2022","1649808000","0.0222"
"4/14/2022","1649894400","0.0023"
"4/15/2022","1649980800","0.0041"
"4/16/2022","1650067200","0.0014"
"4/17/2022","1650153600","0.0029"
"4/18/2022","1650240000","0.0042"
"4/19/2022","1650326400","0.0016"
"4/20/2022","1650412800","0.0006"
"4/21/2022","1650499200","0.0019"
"4/22/2022","1650585600","0.0017"
"4/23/2022","1650672000","0.0022"
"4/24/2022","1650758400","0.0011"
"4/25/2022","1650844800","0.0019"
"4/26/2022","1650931200","0.0025"
"4/27/2022","1651017600","0.0011"
"4/28/2022","1651104000","0.0026"
"4/29/2022","1651190400","0.0026"
"4/30/2022","1651276800","0.0015"
"5/1/2022","1651363200","0.0014"
"5/2/2022","1651449600","0.0014"
"5/3/2022","1651536000","0.0021"
"5/4/2022","1651622400","0.0006"
"5/5/2022","1651708800","0.0005"
"5/6/2022","1651795200","0.0013"
"5/7/2022","1651881600","0.0477"
"5/8/2022","1651968000","0.0050"
"5/9/2022","1652054400","0.0027"
"5/10/2022","1652140800","0.0030"
"5/11/2022","1652227200","0.0017"
"5/12/2022","1652313600","0.0011"
"5/13/2022","1652400000","0.0022"
"5/14/2022","1652486400","0.0013"
"5/15/2022","1652572800","0.0026"
"5/16/2022","1652659200","0.0027"
"5/17/2022","1652745600","0.0032"
"5/18/2022","1652832000","0.0044"
"5/19/2022","1652918400","0.0035"
"5/20/2022","1653004800","0.0049"
"5/21/2022","1653091200","0.0028"
"5/22/2022","1653177600","0.0017"
"5/23/2022","1653264000","0.0036"
"5/24/2022","1653350400","0.0040"
"5/25/2022","1653436800","0.0044"
"5/26/2022","1653523200","0.0027"
"5/27/2022","1653609600","0.0016"
"5/28/2022","1653696000","0.0013"
"5/29/2022","1653782400","0.0017"
"5/30/2022","1653868800","0.0019"
"5/31/2022","1653955200","0.0021"
"6/1/2022","1654041600","0.0029"
"6/2/2022","1654128000","0.0005"
"6/3/2022","1654214400","0.0023"
"6/4/2022","1654300800","0.0021"
"6/5/2022","1654387200","0.0002"
"6/6/2022","1654473600","0.0012"
"6/7/2022","1654560000","0.0012"
"6/8/2022","1654646400","0.0011"
"6/9/2022","1654732800","0.0008"
"6/10/2022","1654819200","0.0008"
"6/11/2022","1654905600","0.0024"
"6/12/2022","1654992000","0.0011"
"6/13/2022","1655078400","0.0009"
"6/14/2022","1655164800","0.0012"
"6/15/2022","1655251200","0.0006"
"6/16/2022","1655337600","0.0013"
"6/17/2022","1655424000","0.0006"
"6/18/2022","1655510400","0.0006"
"6/19/2022","1655596800","0.0012"
"6/20/2022","1655683200","0.0004"
"6/21/2022","1655769600","0.0016"
"6/22/2022","1655856000","0.0004"
"6/23/2022","1655942400","0.0010"
"6/24/2022","1656028800","0.0006"
"6/25/2022","1656115200","0.0014"
"6/26/2022","1656201600","0.0007"
"6/27/2022","1656288000","0.0011"
"6/28/2022","1656374400","0.0008"
"6/29/2022","1656460800","0.0018"
"6/30/2022","1656547200","0.0011"
"7/1/2022","1656633600","0.0019"
"7/2/2022","1656720000","0.0006"
"7/3/2022","1656806400","0.0004"
"7/4/2022","1656892800","0.0012"
"7/5/2022","1656979200","0.0014"
"7/6/2022","1657065600","0.0029"
"7/7/2022","1657152000","0.0027"
"7/8/2022","1657238400","0.0023"
"7/9/2022","1657324800","0.0016"
"7/10/2022","1657411200","0.0010"
"7/11/2022","1657497600","0.0011"
"7/12/2022","1657584000","0.0743"
"7/13/2022","1657670400","0.0072"
"7/14/2022","1657756800","0.0062"
"7/15/2022","1657843200","0.0102"
"7/16/2022","1657929600","0.0056"
"7/17/2022","1658016000","0.0043"
"7/18/2022","1658102400","0.0049"
"7/19/2022","1658188800","0.0045"
"7/20/2022","1658275200","0.0038"
"7/21/2022","1658361600","0.0026"
"7/22/2022","1658448000","0.0039"
"7/23/2022","1658534400","0.0026"
"7/24/2022","1658620800","0.0042"
"7/25/2022","1658707200","0.0040"
"7/26/2022","1658793600","0.0043"
"7/27/2022","1658880000","0.0030"
"7/28/2022","1658966400","0.0026"
"7/29/2022","1659052800","0.0037"
"7/30/2022","1659139200","0.0036"
"7/31/2022","1659225600","0.0027"
"8/1/2022","1659312000","0.0135"
"8/2/2022","1659398400","0.0399"
"8/3/2022","1659484800","0.0495"
"8/4/2022","1659571200","0.0456"
"8/5/2022","1659657600","0.0524"
"8/6/2022","1659744000","0.0563"
"8/7/2022","1659830400","0.0711"
"8/8/2022","1659916800","0.0544"
"8/9/2022","1660003200","0.0482"
"8/10/2022","1660089600","0.0540"
"8/11/2022","1660176000","0.0544"
"8/12/2022","1660262400","0.0829"
"8/13/2022","1660348800","0.1103"
"8/14/2022","1660435200","0.0849"
"8/15/2022","1660521600","0.0888"
"8/16/2022","1660608000","0.0874"
"8/17/2022","1660694400","0.0873"
"8/18/2022","1660780800","0.0914"
"8/19/2022","1660867200","0.0898"
"8/20/2022","1660953600","0.0889"
"8/21/2022","1661040000","0.0872"
"8/22/2022","1661126400","0.0865"
"8/23/2022","1661212800","0.0939"
"8/24/2022","1661299200","0.0947"
"8/25/2022","1661385600","0.0888"
"8/26/2022","1661472000","0.1032"
"8/27/2022","1661558400","0.1200"
"8/28/2022","1661644800","0.1251"
"8/29/2022","1661731200","0.1462"
"8/30/2022","1661817600","0.1669"
"8/31/2022","1661904000","0.1888"
"9/1/2022","1661990400","0.2039"
"9/2/2022","1662076800","0.1928"
"9/3/2022","1662163200","0.1850"
"9/4/2022","1662249600","0.2031"
"9/5/2022","1662336000","0.2161"
"9/6/2022","1662422400","0.1974"
"9/7/2022","1662508800","0.2108"
"9/8/2022","1662595200","0.2068"
"9/9/2022","1662681600","0.2041"
"9/10/2022","1662768000","0.2034"
"9/11/2022","1662854400","0.2180"
"9/12/2022","1662940800","0.2031"
"9/13/2022","1663027200","0.2008"
"9/14/2022","1663113600","0.2014"
"9/15/2022","1663200000","0.2003"
"9/16/2022","1663286400","0.1995"
"9/17/2022","1663372800","0.1992"
"9/18/2022","1663459200","0.2011"
"9/19/2022","1663545600","0.2077"
"9/20/2022","1663632000","0.2053"
"9/21/2022","1663718400","0.1978"
"9/22/2022","1663804800","0.1958"
"9/23/2022","1663891200","0.1995"
"9/24/2022","1663977600","0.1927"
"9/25/2022","1664064000","0.1878"
"9/26/2022","1664150400","0.1926"
"9/27/2022","1664236800","0.1945"
"9/28/2022","1664323200","0.1915"
"9/29/2022","1664409600","0.1920"
"9/30/2022","1664496000","0.1969"
"10/1/2022","1664582400","0.1909"
"10/2/2022","1664668800","0.1890"
"10/3/2022","1664755200","0.1896"
"10/4/2022","1664841600","0.1884"
"10/5/2022","1664928000","0.1864"
"10/6/2022","1665014400","0.1879"
"10/7/2022","1665100800","0.1878"
"10/8/2022","1665187200","0.1912"
"10/9/2022","1665273600","0.2015"
"10/10/2022","1665360000","0.1958"
"10/11/2022","1665446400","0.1928"
"10/12/2022","1665532800","0.1976"
"10/13/2022","1665619200","0.1977"
"10/14/2022","1665705600","0.2080"
"10/15/2022","1665792000","0.2072"
"10/16/2022","1665878400","0.2102"
"10/17/2022","1665964800","0.2064"
"10/18/2022","1666051200","0.2173"
"10/19/2022","1666137600","0.2118"
"10/20/2022","1666224000","0.2265"
"10/21/2022","1666310400","0.2428"
"10/22/2022","1666396800","0.2366"
"10/23/2022","1666483200","0.2356"
"10/24/2022","1666569600","0.2408"
"10/25/2022","1666656000","0.2450"
"10/26/2022","1666742400","0.2373"
"10/27/2022","1666828800","0.2415"
"10/28/2022","1666915200","0.2461"
"10/29/2022","1667001600","0.2406"
"10/30/2022","1667088000","0.2409"
"10/31/2022","1667174400","0.2433"
"11/1/2022","1667260800","0.2509"
"11/2/2022","1667347200","0.2451"
"11/3/2022","1667433600","0.2498"
"11/4/2022","1667520000","0.2511"
"11/5/2022","1667606400","0.2616"
"11/6/2022","1667692800","0.2759"
"11/7/2022","1667779200","0.2681"
"11/8/2022","1667865600","0.2659"
"11/9/2022","1667952000","0.2626"
"11/10/2022","1668038400","0.2657"
"11/11/2022","1668124800","0.2646"
"11/12/2022","1668211200","0.2634"
"11/13/2022","1668297600","0.2529"
"11/14/2022","1668384000","0.2641"
"11/15/2022","1668470400","0.2800"
"11/16/2022","1668556800","0.2784"
"11/17/2022","1668643200","0.2712"
"11/18/2022","1668729600","0.2752"
"11/19/2022","1668816000","0.2734"
"11/20/2022","1668902400","0.2727"
"11/21/2022","1668988800","0.2719"
"11/22/2022","1669075200","0.2726"
"11/23/2022","1669161600","0.2712"
"11/24/2022","1669248000","0.2711"
"11/25/2022","1669334400","0.2713"
"11/26/2022","1669420800","0.2692"
"11/27/2022","1669507200","0.2706"
"11/28/2022","1669593600","0.2708"
"11/29/2022","1669680000","0.2708"
"11/30/2022","1669766400","0.2774"
"12/1/2022","1669852800","0.2673"
"12/2/2022","1669939200","0.2687"
"12/3/2022","1670025600","0.2700"
"12/4/2022","1670112000","0.2677"
"12/5/2022","1670198400","0.2716"
"12/6/2022","1670284800","0.2673"
"12/7/2022","1670371200","0.2675"
"12/8/2022","1670457600","0.2686"
"12/9/2022","1670544000","0.2714"
"12/10/2022","1670630400","0.2749"
"12/11/2022","1670716800","0.2799"
"12/12/2022","1670803200","0.2737"
"12/13/2022","1670889600","0.2743"
"12/14/2022","1670976000","0.3688"
"12/15/2022","1671062400","0.2290"
"12/16/2022","1671148800","0.2568"
"12/17/2022","1671235200","0.2376"
"12/18/2022","1671321600","0.1999"
"12/19/2022","1671408000","0.1798"
"12/20/2022","1671494400","0.1389"
"12/21/2022","1671580800","0.0089"
"12/22/2022","1671667200","0.0195"
"12/23/2022","1671753600","0.0032"
"12/24/2022","1671840000","0.0011"
"12/25/2022","1671926400","0.0052"
"12/26/2022","1672012800","0.0060"
"12/27/2022","1672099200","0.0090"
"12/28/2022","1672185600","0.0036"
"12/29/2022","1672272000","0.0102"
"12/30/2022","1672358400","0.0034"
"12/31/2022","1672444800","0.0007"
"1/1/2023","1672531200","0.0041"
"1/2/2023","1672617600","0.0019"
"1/3/2023","1672704000","0.1098"
"1/4/2023","1672790400","0.0177"
"1/5/2023","1672876800","0.0242"
"1/6/2023","1672963200","0.0070"
"1/7/2023","1673049600","0.0149"
"1/8/2023","1673136000","0.0478"
"1/9/2023","1673222400","0.0081"
"1/10/2023","1673308800","0.0064"
"1/11/2023","1673395200","0.0118"
"1/12/2023","1673481600","0.0140"
"1/13/2023","1673568000","0.0125"
"1/14/2023","1673654400","0.0247"
"1/15/2023","1673740800","0.0168"
"1/16/2023","1673827200","0.0105"
"1/17/2023","1673913600","0.0043"
"1/18/2023","1674000000","0.0044"
"1/19/2023","1674086400","0.0042"
"1/20/2023","1674172800","0.0064"
"1/21/2023","1674259200","0.0031"
"1/22/2023","1674345600","0.0044"
"1/23/2023","1674432000","0.0032"
"1/24/2023","1674518400","0.0043"
"1/25/2023","1674604800","0.0083"
"1/26/2023","1674691200","0.0059"
"1/27/2023","1674777600","0.0045"
"1/28/2023","1674864000","0.0086"
"1/29/2023","1674950400","0.0085"
"1/30/2023","1675036800","0.0165"
"1/31/2023","1675123200","0.0186"
"2/1/2023","1675209600","0.0038"
"2/2/2023","1675296000","0.0024"
"2/3/2023","1675382400","0.0196"
"2/4/2023","1675468800","0.0083"
"2/5/2023","1675555200","0.0136"
"2/6/2023","1675641600","0.0063"
"2/7/2023","1675728000","0.0132"
"2/8/2023","1675814400","0.0074"
"2/9/2023","1675900800","0.0019"
"2/10/2023","1675987200","0.0025"
"2/11/2023","1676073600","0.0036"
"2/12/2023","1676160000","0.0051"
"2/13/2023","1676246400","0.0024"
"2/14/2023","1676332800","0.0020"
"2/15/2023","1676419200","0.0016"
"2/16/2023","1676505600","0.0018"
"2/17/2023","1676592000","0.0020"
"2/18/2023","1676678400","0.0053"
"2/19/2023","1676764800","0.0012"
"2/20/2023","1676851200","0.0120"
"2/21/2023","1676937600","0.0021"
"2/22/2023","1677024000","0.0022"
"2/23/2023","1677110400","0.0221"
"2/24/2023","1677196800","0.0040"
"2/25/2023","1677283200","0.0008"
"2/26/2023","1677369600","0.0022"
"2/27/2023","1677456000","0.0123"
"2/28/2023","1677542400","0.0158"
"3/1/2023","1677628800","0.0043"
"3/2/2023","1677715200","0.0028"
"3/3/2023","1677801600","0.0034"
"3/4/2023","1677888000","0.0021"
"3/5/2023","1677974400","0.0016"
"3/6/2023","1678060800","0.0044"
"3/7/2023","1678147200","0.0033"
"3/8/2023","1678233600","0.0046"
"3/9/2023","1678320000","0.0028"
"3/10/2023","1678406400","0.0016"
"3/11/2023","1678492800","0.0024"
"3/12/2023","1678579200","0.0033"
"3/13/2023","1678665600","0.0036"
"3/14/2023","1678752000","0.0187"
"3/15/2023","1678838400","0.0083"
"3/16/2023","1678924800","0.0038"
"3/17/2023","1679011200","0.0333"
"3/18/2023","1679097600","0.0107"
"3/19/2023","1679184000","0.0015"
"3/20/2023","1679270400","0.0040"
"3/21/2023","1679356800","0.0083"
"3/22/2023","1679443200","0.0051"
"3/23/2023","1679529600","0.0025"
"3/24/2023","1679616000","0.0033"
"3/25/2023","1679702400","0.0002"
"3/26/2023","1679788800","0.0005"
"3/27/2023","1679875200","0.0047"
"3/28/2023","1679961600","0.0576"
"3/29/2023","1680048000","0.0015"
"3/30/2023","1680134400","0.0052"
"3/31/2023","1680220800","0.0022"
"4/1/2023","1680307200","0.0003"
"4/2/2023","1680393600","0.0008"
"4/3/2023","1680480000","0.0014"
"4/4/2023","1680566400","0.0052"
"4/5/2023","1680652800","0.0407"
"4/6/2023","1680739200","0.0049"
"4/7/2023","1680825600","0.0013"
"4/8/2023","1680912000","0.0015"
"4/9/2023","1680998400","0.0212"
"4/10/2023","1681084800","0.0180"
"4/11/2023","1681171200","0.0075"
"4/12/2023","1681257600","0.0178"
"4/13/2023","1681344000","0.0224"
"4/14/2023","1681430400","0.0012"
"4/15/2023","1681516800","0.0009"
"4/16/2023","1681603200","0.0010"
"4/17/2023","1681689600","0.0012"
"4/18/2023","1681776000","0.0161"
"4/19/2023","1681862400","0.0034"
"4/20/2023","1681948800","0.0033"
"4/21/2023","1682035200","0.0009"
"4/22/2023","1682121600","0.0182"
"4/23/2023","1682208000","0.0072"
"4/24/2023","1682294400","0.0023"
"4/25/2023","1682380800","0.0018"
"4/26/2023","1682467200","0.0050"
"4/27/2023","1682553600","0.0031"
"4/28/2023","1682640000","0.0086"
"4/29/2023","1682726400","0.0044"
"4/30/2023","1682812800","0.0018"
"5/1/2023","1682899200","0.0008"
"5/2/2023","1682985600","0.0014"
"5/3/2023","1683072000","0.0007"
"5/4/2023","1683158400","0.0028"
"5/5/2023","1683244800","0.0019"
"5/6/2023","1683331200","0.0075"
"5/7/2023","1683417600","0.0209"
"5/8/2023","1683504000","0.0273"
"5/9/2023","1683590400","0.0109"
"5/10/2023","1683676800","0.0140"
"5/11/2023","1683763200","0.0247"
"5/12/2023","1683849600","0.0140"
"5/13/2023","1683936000","0.0103"
"5/14/2023","1684022400","0.0173"
"5/15/2023","1684108800","0.0088"
"5/16/2023","1684195200","0.0124"
"5/17/2023","1684281600","0.0042"
"5/18/2023","1684368000","0.0218"
"5/19/2023","1684454400","0.0194"
"5/20/2023","1684540800","0.0117"
"5/21/2023","1684627200","0.0221"
"5/22/2023","1684713600","0.0111"
"5/23/2023","1684800000","0.0077"
"5/24/2023","1684886400","0.0243"
"5/25/2023","1684972800","0.0096"
"5/26/2023","1685059200","0.0099"
"5/27/2023","1685145600","0.0034"
"5/28/2023","1685232000","0.0126"
"5/29/2023","1685318400","0.0179"
"5/30/2023","1685404800","0.0322"
"5/31/2023","1685491200","0.0104"
"6/1/2023","1685577600","0.0378"
"6/2/2023","1685664000","0.0088"
"6/3/2023","1685750400","0.0046"
"6/4/2023","1685836800","0.0046"
"6/5/2023","1685923200","0.0052"
"6/6/2023","1686009600","0.0045"
"6/7/2023","1686096000","0.0041"
"6/8/2023","1686182400","0.0060"
"6/9/2023","1686268800","0.0209"
"6/10/2023","1686355200","0.0039"
"6/11/2023","1686441600","0.0022"
"6/12/2023","1686528000","0.0034"
"6/13/2023","1686614400","0.0048"
"6/14/2023","1686700800","0.0068"
"6/15/2023","1686787200","0.0049"
"6/16/2023","1686873600","0.0016"
"6/17/2023","1686960000","0.0021"
"6/18/2023","1687046400","0.0012"
"6/19/2023","1687132800","0.0030"
"6/20/2023","1687219200","0.0028"
"6/21/2023","1687305600","0.0025"
"6/22/2023","1687392000","0.0024"
"6/23/2023","1687478400","0.0042"
"6/24/2023","1687564800","0.0012"
"6/25/2023","1687651200","0.0029"
"6/26/2023","1687737600","0.0020"
"6/27/2023","1687824000","0.0025"
"6/28/2023","1687910400","0.0021"
"6/29/2023","1687996800","0.0008"
"6/30/2023","1688083200","0.0017"
"7/1/2023","1688169600","0.0009"
"7/2/2023","1688256000","0.0311"
"7/3/2023","1688342400","0.0301"
"7/4/2023","1688428800","0.0071"
"7/5/2023","1688515200","0.0081"
"7/6/2023","1688601600","0.0193"
"7/7/2023","1688688000","0.0510"
"7/8/2023","1688774400","0.0021"
"7/9/2023","1688860800","0.0055"
"7/10/2023","1688947200","0.0058"
"7/11/2023","1689033600","0.0017"
"7/12/2023","1689120000","0.0038"
"7/13/2023","1689206400","0.0344"
"7/14/2023","1689292800","0.0063"
"7/15/2023","1689379200","0.0306"
"7/16/2023","1689465600","0.0067"
"7/17/2023","1689552000","0.0063"
"7/18/2023","1689638400","0.0062"
"7/19/2023","1689724800","0.0061"
"7/20/2023","1689811200","0.0404"
"7/21/2023","1689897600","0.0417"
"7/22/2023","1689984000","0.0078"
"7/23/2023","1690070400","0.0061"
"7/24/2023","1690156800","0.0045"
"7/25/2023","1690243200","0.0256"
"7/26/2023","1690329600","0.0170"
"7/27/2023","1690416000","0.0217"
"7/28/2023","1690502400","0.0415"
"7/29/2023","1690588800","0.0351"
"7/30/2023","1690675200","0.0119"
"7/31/2023","1690761600","0.0019"
"8/1/2023","1690848000","0.0022"
"8/2/2023","1690934400","0.0042"
"8/3/2023","1691020800","0.0020"
"8/4/2023","1691107200","0.0019"
"8/5/2023","1691193600","0.0009"
"8/6/2023","1691280000","0.0024"
"8/7/2023","1691366400","0.0204"
"8/8/2023","1691452800","0.0027"
"8/9/2023","1691539200","0.0022"
"8/10/2023","1691625600","0.0008"
"8/11/2023","1691712000","0.0019"
"8/12/2023","1691798400","0.0025"
"8/13/2023","1691884800","0.0011"
"8/14/2023","1691971200","0.0017"
"8/15/2023","1692057600","0.0023"
"8/16/2023","1692144000","0.0024"
"8/17/2023","1692230400","0.0026"
"8/18/2023","1692316800","0.0033"
"8/19/2023","1692403200","0.0003"
"8/20/2023","1692489600","0.0003"
"8/21/2023","1692576000","0.0019"
"8/22/2023","1692662400","0.0020"
"8/23/2023","1692748800","0.0028"
"8/24/2023","1692835200","0.0021"
"8/25/2023","1692921600","0.0013"
"8/26/2023","1693008000","0.0003"
"8/27/2023","1693094400","0.0009"
"8/28/2023","1693180800","0.0005"
"8/29/2023","1693267200","0.0009"
"8/30/2023","1693353600","0.0016"
"8/31/2023","1693440000","0.0021"
"9/1/2023","1693526400","0.0007"
"9/2/2023","1693612800","0.0003"
"9/3/2023","1693699200","0.0018"
"9/4/2023","1693785600","0.0044"
"9/5/2023","1693872000","0.0020"
"9/6/2023","1693958400","0.0046"
"9/7/2023","1694044800","0.0022"
"9/8/2023","1694131200","0.0011"
"9/9/2023","1694217600","0.0007"
"9/10/2023","1694304000","0.0007"
"9/11/2023","1694390400","0.0021"
"9/12/2023","1694476800","0.0008"
"9/13/2023","1694563200","0.0002"
"9/14/2023","1694649600","0.0015"
"9/15/2023","1694736000","0.0018"
"9/16/2023","1694822400","0.0013"
"9/17/2023","1694908800","0.0013"
"9/18/2023","1694995200","0.0017"
"9/19/2023","1695081600","0.0012"
"9/20/2023","1695168000","0.0041"
"9/21/2023","1695254400","0.0019"
"9/22/2023","1695340800","0.0004"
"9/23/2023","1695427200","0.0007"
"9/24/2023","1695513600","0.0018"
"9/25/2023","1695600000","0.0167"
"9/26/2023","1695686400","0.0100"
"9/27/2023","1695772800","0.0087"
"9/28/2023","1695859200","0.0085"
"9/29/2023","1695945600","0.0033"
"9/30/2023","1696032000","0.0009"
"10/1/2023","1696118400","0.0007"
"10/2/2023","1696204800","0.0023"
"10/3/2023","1696291200","0.0015"
"10/4/2023","1696377600","0.0039"
"10/5/2023","1696464000","0.0028"
"10/6/2023","1696550400","0.0040"
"10/7/2023","1696636800","0.0023"
"10/8/2023","1696723200","0.0019"
"10/9/2023","1696809600","0.0036"
"10/10/2023","1696896000","0.0014"
"10/11/2023","1696982400","0.0019"
"10/12/2023","1697068800","0.0049"
"10/13/2023","1697155200","0.0039"
"10/14/2023","1697241600","0.0007"
"10/15/2023","1697328000","0.0027"
"10/16/2023","1697414400","0.0043"
"10/17/2023","1697500800","0.0021"
"10/18/2023","1697587200","0.0015"
"10/19/2023","1697673600","0.0040"
"10/20/2023","1697760000","0.0006"
"10/21/2023","1697846400","0.0008"
"10/22/2023","1697932800","0.0040"
"10/23/2023","1698019200","0.0013"
"10/24/2023","1698105600","0.0025"
"10/25/2023","1698192000","0.0020"
"10/26/2023","1698278400","0.0017"